| time (UTC) | temp F | wind direction | speed MPH | gust MPH | rain 1hr in | rain 24hr in | rain mn in | humidity % | barometer mb |
| 20260506005306 | 52 | 274 | 0.0 | 0.0 | 0.00 | 0.13 | 0.00 | 91 | 1010.1 |
| 20260506004805 | 52 | 274 | 0.0 | 0.0 | 0.00 | 0.13 | 0.00 | 91 | 1010.1 |
| 20260506004304 | 52 | 274 | 0.0 | 2.0 | 0.00 | 0.13 | 0.00 | 91 | 1010.1 |
| 20260506003805 | 52 | 274 | 1.0 | 3.0 | 0.00 | 0.13 | 0.00 | 91 | 1010.2 |
| 20260506003305 | 52 | 262 | 1.0 | 2.0 | 0.00 | 0.13 | 0.00 | 91 | 1010.2 |
| 20260506002805 | 53 | 275 | 2.0 | 3.0 | 0.00 | 0.13 | 0.00 | 91 | 1010.2 |
| 20260506001304 | 53 | 338 | 0.0 | 5.0 | 0.00 | 0.13 | 0.00 | 91 | 1010.2 |
| 20260506000804 | 53 | 275 | 2.0 | 6.0 | 0.00 | 0.13 | 0.00 | 91 | 1010.3 |
| 20260506000305 | 53 | 314 | 1.0 | 3.0 | 0.00 | 0.13 | 0.00 | 92 | 1010.3 |
| 20260505235805 | 52 | 289 | 0.0 | 3.0 | 0.00 | 0.13 | 0.00 | 92 | 1010.3 |
| 20260505235305 | 53 | 266 | 0.0 | 1.0 | 0.00 | 0.13 | 0.00 | 90 | 1010.3 |
| 20260505234305 | 53 | 269 | 0.0 | 2.0 | 0.00 | 0.13 | 0.00 | 91 | 1010.3 |
| 20260505233805 | 53 | 275 | 1.0 | 3.0 | 0.00 | 0.13 | 0.00 | 91 | 1010.3 |
| 20260505233304 | 53 | 267 | 0.0 | 2.0 | 0.00 | 0.13 | 0.00 | 91 | 1010.2 |
| 20260505232805 | 53 | 289 | 1.0 | 2.0 | 0.00 | 0.13 | 0.00 | 92 | 1010.2 |
| 20260505232305 | 53 | 270 | 0.0 | 2.0 | 0.00 | 0.13 | 0.00 | 92 | 1010.3 |
| 20260505231805 | 53 | 270 | 0.0 | 2.0 | 0.00 | 0.13 | 0.00 | 92 | 1010.2 |
| 20260505231304 | 53 | 273 | 0.0 | 2.0 | 0.00 | 0.13 | 0.00 | 93 | 1010.2 |
| 20260505230804 | 53 | 274 | 1.0 | 3.0 | 0.00 | 0.13 | 0.00 | 93 | 1010.1 |
| 20260505230305 | 53 | 273 | 0.0 | 1.0 | 0.00 | 0.13 | 0.00 | 93 | 1010.2 |
| 20260505225306 | 53 | 283 | 0.0 | 1.0 | 0.00 | 0.13 | 0.00 | 92 | 1010.1 |
| 20260505224805 | 53 | 283 | 0.0 | 1.0 | 0.00 | 0.13 | 0.00 | 92 | 1010.1 |
| 20260505224304 | 53 | 283 | 0.0 | 1.0 | 0.00 | 0.13 | 0.00 | 92 | 1010.0 |
| 20260505223804 | 53 | 283 | 0.0 | 1.0 | 0.00 | 0.13 | 0.00 | 93 | 1010.2 |
| 20260505223304 | 53 | 283 | 0.0 | 1.0 | 0.00 | 0.13 | 0.00 | 93 | 1010.4 |
| 20260505222805 | 54 | 324 | 0.0 | 1.0 | 0.00 | 0.13 | 0.00 | 93 | 1010.4 |
| 20260505222306 | 54 | 324 | 0.0 | 1.0 | 0.00 | 0.13 | 0.00 | 93 | 1010.5 |
| 20260505221805 | 54 | 324 | 0.0 | 0.0 | 0.00 | 0.13 | 0.00 | 93 | 1010.7 |
| 20260505221304 | 54 | 324 | 0.0 | 0.0 | 0.00 | 0.13 | 0.00 | 92 | 1010.6 |
| 20260505215805 | 54 | 324 | 0.0 | 2.0 | 0.00 | 0.13 | 0.13 | 91 | 1010.8 |
| 20260505215305 | 54 | 322 | 0.0 | 0.0 | 0.00 | 0.13 | 0.13 | 91 | 1010.8 |
| 20260505214305 | 54 | 322 | 0.0 | 0.0 | 0.00 | 0.13 | 0.13 | 92 | 1010.9 |
| 20260505213805 | 54 | 322 | 0.0 | 0.0 | 0.00 | 0.13 | 0.13 | 92 | 1010.8 |
| 20260505213305 | 54 | 322 | 0.0 | 0.0 | 0.00 | 0.13 | 0.13 | 92 | 1010.7 |
| 20260505212805 | 54 | 322 | 0.0 | 0.0 | 0.00 | 0.13 | 0.13 | 91 | 1010.8 |
| 20260505212306 | 55 | 322 | 0.0 | 0.0 | 0.00 | 0.13 | 0.13 | 91 | 1010.7 |
| 20260505211805 | 55 | 322 | 0.0 | 0.0 | 0.00 | 0.13 | 0.13 | 91 | 1010.6 |
| 20260505210805 | 55 | 324 | 0.0 | 1.0 | 0.00 | 0.13 | 0.13 | 91 | 1010.6 |
| 20260505210305 | 55 | 324 | 0.0 | 0.0 | 0.00 | 0.13 | 0.13 | 90 | 1010.7 |
| 20260505205805 | 55 | 324 | 0.0 | 0.0 | 0.00 | 0.13 | 0.13 | 90 | 1010.6 |
| 20260505205306 | 55 | 324 | 0.0 | 0.0 | 0.00 | 0.13 | 0.13 | 91 | 1010.7 |
| 20260505204805 | 55 | 324 | 0.0 | 0.0 | 0.00 | 0.13 | 0.13 | 90 | 1010.7 |
| 20260505203805 | 55 | 324 | 0.0 | 1.0 | 0.00 | 0.13 | 0.13 | 90 | 1010.4 |
| 20260505203305 | 55 | 324 | 0.0 | 0.0 | 0.00 | 0.15 | 0.13 | 91 | 1010.3 |
| 20260505202805 | 55 | 324 | 0.0 | 0.0 | 0.00 | 0.17 | 0.13 | 91 | 1010.2 |
| 20260505202306 | 55 | 324 | 0.0 | 1.0 | 0.00 | 0.18 | 0.13 | 91 | 1010.2 |
| 20260505201805 | 55 | 324 | 0.0 | 1.0 | 0.00 | 0.20 | 0.13 | 91 | 1010.2 |
| 20260505201305 | 55 | 326 | 0.0 | 1.0 | 0.00 | 0.20 | 0.13 | 91 | 1010.2 |
| 20260505200805 | 55 | 326 | 0.0 | 0.0 | 0.00 | 0.20 | 0.13 | 91 | 1010.1 |
| 20260505200305 | 55 | 326 | 0.0 | 0.0 | 0.00 | 0.20 | 0.13 | 90 | 1010.0 |
| 20260505195805 | 55 | 326 | 0.0 | 1.0 | 0.00 | 0.20 | 0.13 | 90 | 1010.0 |
| 20260505195305 | 56 | 326 | 0.0 | 1.0 | 0.00 | 0.20 | 0.13 | 90 | 1009.8 |
| 20260505194804 | 56 | 326 | 0.0 | 1.0 | 0.00 | 0.20 | 0.13 | 89 | 1009.7 |
| 20260505193805 | 56 | 336 | 0.0 | 1.0 | 0.00 | 0.20 | 0.13 | 88 | 1009.6 |
| 20260505193305 | 56 | 281 | 0.0 | 0.0 | 0.00 | 0.20 | 0.13 | 88 | 1009.5 |
| 20260505192804 | 56 | 281 | 0.0 | 1.0 | 0.00 | 0.20 | 0.13 | 87 | 1009.4 |
| 20260505192306 | 56 | 281 | 0.0 | 2.0 | 0.00 | 0.20 | 0.13 | 87 | 1009.2 |
| 20260505191804 | 56 | 267 | 0.0 | 1.0 | 0.00 | 0.20 | 0.13 | 88 | 1009.2 |
| 20260505190805 | 57 | 265 | 0.0 | 1.0 | 0.00 | 0.20 | 0.13 | 87 | 1009.2 |
| 20260505190305 | 57 | 264 | 1.0 | 2.0 | 0.00 | 0.20 | 0.13 | 87 | 1009.1 |
| 20260505185805 | 57 | 273 | 1.0 | 3.0 | 0.00 | 0.20 | 0.13 | 88 | 1009.1 |
| 20260505185305 | 57 | 267 | 1.0 | 3.0 | 0.00 | 0.20 | 0.13 | 90 | 1009.2 |
| 20260505184805 | 57 | 262 | 1.0 | 3.0 | 0.00 | 0.20 | 0.13 | 90 | 1009.2 |
| 20260505184304 | 57 | 275 | 1.0 | 2.0 | 0.00 | 0.20 | 0.13 | 89 | 1009.3 |
| 20260505183806 | 57 | 280 | 0.0 | 2.0 | 0.00 | 0.20 | 0.13 | 89 | 1009.2 |
| 20260505183305 | 57 | 285 | 0.0 | 1.0 | 0.00 | 0.20 | 0.13 | 90 | 1009.2 |
| 20260505182804 | 57 | 285 | 0.0 | 2.0 | 0.00 | 0.20 | 0.13 | 90 | 1009.3 |
| 20260505182306 | 57 | 327 | 0.0 | 1.0 | 0.00 | 0.20 | 0.13 | 90 | 1009.2 |
| 20260505181805 | 57 | 327 | 0.0 | 0.0 | 0.00 | 0.20 | 0.13 | 89 | 1009.2 |
| 20260505181304 | 57 | 327 | 0.0 | 1.0 | 0.00 | 0.20 | 0.13 | 89 | 1009.3 |
| 20260505180804 | 57 | 323 | 0.0 | 2.0 | 0.00 | 0.20 | 0.13 | 88 | 1009.3 |
| 20260505180305 | 57 | 323 | 0.0 | 1.0 | 0.00 | 0.20 | 0.13 | 89 | 1009.3 |
| 20260505175305 | 57 | 323 | 0.0 | 1.0 | 0.01 | 0.20 | 0.13 | 88 | 1009.2 |
| 20260505174805 | 57 | 326 | 0.0 | 1.0 | 0.01 | 0.20 | 0.13 | 88 | 1009.2 |
| 20260505174305 | 57 | 326 | 0.0 | 0.0 | 0.02 | 0.20 | 0.13 | 88 | 1009.3 |
| 20260505173805 | 57 | 326 | 0.0 | 0.0 | 0.02 | 0.20 | 0.13 | 87 | 1009.4 |
| 20260505173305 | 57 | 326 | 0.0 | 0.0 | 0.03 | 0.20 | 0.13 | 87 | 1009.4 |
| 20260505172306 | 57 | 326 | 0.0 | 2.0 | 0.04 | 0.20 | 0.13 | 87 | 1009.4 |
| 20260505171805 | 57 | 326 | 0.0 | 2.0 | 0.05 | 0.20 | 0.13 | 88 | 1009.3 |
| 20260505165805 | 57 | 327 | 0.0 | 3.0 | 0.07 | 0.20 | 0.13 | 88 | 1009.2 |
| 20260505165306 | 57 | 316 | 0.0 | 3.0 | 0.07 | 0.20 | 0.13 | 87 | 1009.4 |
| 20260505164805 | 58 | 323 | 1.0 | 3.0 | 0.07 | 0.20 | 0.13 | 86 | 1009.4 |
| 20260505164305 | 58 | 314 | 1.0 | 3.0 | 0.11 | 0.19 | 0.12 | 83 | 1009.5 |
| 20260505163806 | 58 | 280 | 0.0 | 1.0 | 0.10 | 0.18 | 0.11 | 84 | 1009.6 |
| 20260505163305 | 58 | 256 | 0.0 | 3.0 | 0.09 | 0.17 | 0.10 | 83 | 1009.8 |
| 20260505162804 | 58 | 263 | 0.0 | 1.0 | 0.09 | 0.17 | 0.09 | 83 | 1009.8 |
| 20260505162307 | 58 | 261 | 1.0 | 3.0 | 0.09 | 0.17 | 0.09 | 81 | 1009.7 |
| 20260505161805 | 58 | 286 | 1.0 | 3.0 | 0.08 | 0.16 | 0.09 | 78 | 1009.6 |
| 20260505161304 | 58 | 276 | 0.0 | 3.0 | 0.08 | 0.16 | 0.09 | 80 | 1009.6 |
| 20260505160805 | 59 | 277 | 3.0 | 5.0 | 0.08 | 0.16 | 0.09 | 78 | 1009.7 |
| 20260505160305 | 60 | 263 | 0.0 | 1.0 | 0.08 | 0.16 | 0.09 | 80 | 1009.8 |
| 20260505151804 | 67 | 312 | 2.0 | 6.0 | 0.00 | 0.08 | 0.01 | 60 | 1008.6 |
| 20260505151304 | 68 | 313 | 2.0 | 7.0 | 0.00 | 0.08 | 0.01 | 60 | 1008.4 |
| 20260505150803 | 69 | 314 | 3.0 | 6.0 | 0.00 | 0.08 | 0.01 | 59 | 1008.4 |
| 20260505150304 | 69 | 327 | 1.0 | 3.0 | 0.00 | 0.08 | 0.01 | 59 | 1008.3 |
| 20260505140304 | 72 | 312 | 3.0 | 6.0 | 0.00 | 0.10 | 0.01 | 52 | 1008.5 |
| 20260505130303 | 72 | 319 | 1.0 | 2.0 | 0.00 | 0.10 | 0.01 | 49 | 1009.2 |
| 20260505124804 | 73 | 286 | 1.0 | 2.0 | 0.00 | 0.10 | 0.01 | 47 | 1009.3 |
| 20260505124304 | 74 | 324 | 1.0 | 2.0 | 0.00 | 0.10 | 0.01 | 47 | 1009.4 |
| 20260505123805 | 74 | 319 | 1.0 | 3.0 | 0.00 | 0.10 | 0.01 | 48 | 1009.4 |
| 20260505123304 | 73 | 325 | 3.0 | 6.0 | 0.00 | 0.10 | 0.01 | 48 | 1009.4 |
| 20260505122805 | 73 | 324 | 3.0 | 6.0 | 0.00 | 0.10 | 0.01 | 48 | 1009.5 |
| 20260505122305 | 73 | 319 | 1.0 | 5.0 | 0.00 | 0.10 | 0.01 | 50 | 1009.5 |
| 20260505121804 | 72 | 320 | 2.0 | 3.0 | 0.00 | 0.10 | 0.01 | 51 | 1009.6 |
| 20260505121304 | 71 | 322 | 2.0 | 3.0 | 0.00 | 0.10 | 0.01 | 52 | 1009.6 |
| 20260505120303 | 72 | 320 | 3.0 | 6.0 | 0.00 | 0.10 | 0.01 | 51 | 1009.7 |
| 20260505115804 | 72 | 325 | 2.0 | 5.0 | 0.00 | 0.10 | 0.01 | 51 | 1009.8 |
| 20260505115305 | 72 | 322 | 2.0 | 3.0 | 0.00 | 0.10 | 0.01 | 53 | 1009.8 |
| 20260505114304 | 70 | 323 | 2.0 | 6.0 | 0.00 | 0.10 | 0.01 | 58 | 1009.7 |
| 20260505113804 | 70 | 316 | 2.0 | 5.0 | 0.00 | 0.10 | 0.01 | 57 | 1009.9 |
| 20260505113304 | 70 | 320 | 1.0 | 6.0 | 0.00 | 0.10 | 0.01 | 56 | 1010.0 |
| 20260505112804 | 71 | 323 | 1.0 | 3.0 | 0.00 | 0.10 | 0.01 | 55 | 1010.0 |
| 20260505112305 | 70 | 311 | 1.0 | 3.0 | 0.00 | 0.10 | 0.01 | 56 | 1010.1 |
| 20260505111304 | 69 | 323 | 3.0 | 3.0 | 0.00 | 0.10 | 0.01 | 59 | 1010.3 |
| 20260505110804 | 69 | 323 | 2.0 | 3.0 | 0.00 | 0.10 | 0.01 | 58 | 1010.3 |
| 20260505110304 | 69 | 319 | 1.0 | 5.0 | 0.00 | 0.10 | 0.01 | 58 | 1010.3 |
| 20260505101304 | 64 | 283 | 1.0 | 3.0 | 0.00 | 0.10 | 0.01 | 65 | 1010.7 |
| 20260505100804 | 64 | 263 | 3.0 | 7.0 | 0.00 | 0.10 | 0.01 | 64 | 1010.7 |
| 20260505100305 | 64 | 260 | 2.0 | 5.0 | 0.00 | 0.10 | 0.01 | 64 | 1010.6 |
| 20260505095804 | 65 | 271 | 2.0 | 7.0 | 0.00 | 0.10 | 0.01 | 64 | 1010.4 |
| 20260505095305 | 65 | 277 | 2.0 | 5.0 | 0.00 | 0.10 | 0.01 | 65 | 1010.4 |
| 20260505094304 | 64 | 272 | 2.0 | 7.0 | 0.00 | 0.10 | 0.01 | 67 | 1010.5 |
| 20260505093805 | 63 | 264 | 2.0 | 9.0 | 0.00 | 0.10 | 0.01 | 69 | 1010.4 |
| 20260505093304 | 62 | 273 | 3.0 | 8.0 | 0.00 | 0.10 | 0.01 | 70 | 1010.5 |
| 20260505092804 | 62 | 277 | 3.0 | 7.0 | 0.00 | 0.10 | 0.01 | 72 | 1010.5 |
| 20260505092305 | 61 | 270 | 4.0 | 10.0 | 0.00 | 0.10 | 0.01 | 72 | 1010.6 |
| 20260505091803 | 60 | 274 | 2.0 | 6.0 | 0.00 | 0.10 | 0.01 | 74 | 1010.6 |
| 20260505091304 | 59 | 275 | 3.0 | 9.0 | 0.00 | 0.10 | 0.01 | 75 | 1010.6 |
| 20260505090804 | 59 | 272 | 4.0 | 9.0 | 0.00 | 0.10 | 0.01 | 75 | 1010.4 |
| 20260505090305 | 59 | 278 | 3.0 | 7.0 | 0.00 | 0.10 | 0.01 | 76 | 1010.4 |
| 20260505085804 | 58 | 278 | 3.0 | 12.0 | 0.00 | 0.10 | 0.01 | 76 | 1010.6 |
| 20260505085305 | 58 | 273 | 5.0 | 10.0 | 0.00 | 0.10 | 0.01 | 76 | 1010.8 |
| 20260505084804 | 58 | 278 | 3.0 | 7.0 | 0.00 | 0.10 | 0.01 | 76 | 1011.0 |
| 20260505084304 | 58 | 277 | 3.0 | 6.0 | 0.00 | 0.10 | 0.01 | 76 | 1011.2 |
| 20260505083804 | 58 | 278 | 4.0 | 12.0 | 0.00 | 0.10 | 0.01 | 77 | 1011.2 |
| 20260505083304 | 58 | 278 | 5.0 | 8.0 | 0.00 | 0.10 | 0.01 | 77 | 1011.2 |
| 20260505082805 | 58 | 279 | 4.0 | 8.0 | 0.00 | 0.10 | 0.01 | 77 | 1011.2 |
| 20260505082305 | 58 | 278 | 4.0 | 7.0 | 0.00 | 0.10 | 0.01 | 77 | 1011.2 |
| 20260505081804 | 58 | 276 | 3.0 | 8.0 | 0.00 | 0.10 | 0.01 | 76 | 1011.1 |
| 20260505081304 | 58 | 276 | 3.0 | 7.0 | 0.00 | 0.10 | 0.01 | 76 | 1010.9 |
| 20260505080804 | 58 | 276 | 6.0 | 12.0 | 0.00 | 0.10 | 0.01 | 76 | 1010.9 |
| 20260505080304 | 58 | 277 | 5.0 | 10.0 | 0.00 | 0.10 | 0.01 | 76 | 1010.8 |
| 20260505075804 | 58 | 278 | 5.0 | 10.0 | 0.00 | 0.10 | 0.01 | 76 | 1010.7 |
| 20260505075304 | 58 | 279 | 5.0 | 12.0 | 0.00 | 0.10 | 0.01 | 76 | 1010.7 |
| 20260505074305 | 58 | 276 | 6.0 | 12.0 | 0.00 | 0.10 | 0.01 | 77 | 1010.8 |
| 20260505073804 | 58 | 278 | 6.0 | 12.0 | 0.00 | 0.10 | 0.01 | 78 | 1010.8 |
| 20260505073304 | 58 | 277 | 7.0 | 10.0 | 0.00 | 0.10 | 0.01 | 78 | 1010.9 |
| 20260505072804 | 58 | 279 | 5.0 | 10.0 | 0.00 | 0.10 | 0.01 | 79 | 1011.0 |
| 20260505071804 | 57 | 276 | 3.0 | 10.0 | 0.00 | 0.10 | 0.01 | 80 | 1011.0 |
| 20260505071305 | 57 | 270 | 5.0 | 12.0 | 0.00 | 0.10 | 0.01 | 81 | 1011.0 |
| 20260505070805 | 56 | 269 | 5.0 | 9.0 | 0.00 | 0.10 | 0.01 | 82 | 1011.1 |
| 20260505070305 | 56 | 272 | 5.0 | 12.0 | 0.00 | 0.10 | 0.01 | 82 | 1011.1 |
| 20260505065804 | 56 | 277 | 6.0 | 10.0 | 0.00 | 0.10 | 0.01 | 83 | 1011.1 |
| 20260505065304 | 55 | 269 | 3.0 | 9.0 | 0.00 | 0.10 | 0.01 | 83 | 1011.1 |
| 20260505064804 | 55 | 277 | 3.0 | 6.0 | 0.00 | 0.10 | 0.01 | 84 | 1011.1 |
| 20260505064304 | 55 | 269 | 4.0 | 12.0 | 0.00 | 0.10 | 0.01 | 84 | 1011.1 |
| 20260505063804 | 55 | 279 | 2.0 | 10.0 | 0.00 | 0.10 | 0.01 | 84 | 1011.1 |
| 20260505062804 | 55 | 268 | 3.0 | 12.0 | 0.00 | 0.10 | 0.01 | 84 | 1010.9 |
| 20260505062305 | 55 | 274 | 5.0 | 12.0 | 0.00 | 0.10 | 0.01 | 85 | 1010.9 |
| 20260505061804 | 55 | 273 | 3.0 | 7.0 | 0.00 | 0.10 | 0.01 | 85 | 1010.9 |
| 20260505061304 | 54 | 266 | 3.0 | 10.0 | 0.00 | 0.10 | 0.01 | 86 | 1010.9 |
| 20260505060805 | 53 | 272 | 3.0 | 6.0 | 0.00 | 0.10 | 0.01 | 88 | 1010.9 |
| 20260505060305 | 53 | 265 | 2.0 | 7.0 | 0.00 | 0.10 | 0.01 | 89 | 1011.1 |
| 20260505055304 | 52 | 272 | 3.0 | 6.0 | 0.00 | 0.10 | 0.01 | 89 | 1011.2 |
| 20260505054804 | 52 | 252 | 0.0 | 3.0 | 0.00 | 0.10 | 0.01 | 90 | 1011.2 |
| 20260505054304 | 52 | 273 | 0.0 | 3.0 | 0.00 | 0.10 | 0.01 | 90 | 1011.2 |
| 20260505053804 | 52 | 267 | 2.0 | 7.0 | 0.00 | 0.10 | 0.01 | 90 | 1011.3 |
| 20260505053304 | 52 | 266 | 2.0 | 5.0 | 0.00 | 0.10 | 0.01 | 90 | 1011.2 |
| 20260505052805 | 52 | 272 | 2.0 | 6.0 | 0.00 | 0.10 | 0.01 | 90 | 1011.3 |
| 20260505052305 | 52 | 267 | 2.0 | 5.0 | 0.00 | 0.10 | 0.01 | 90 | 1011.2 |
| 20260505051804 | 52 | 262 | 1.0 | 5.0 | 0.00 | 0.10 | 0.01 | 90 | 1011.1 |
| 20260505051304 | 52 | 264 | 0.0 | 2.0 | 0.00 | 0.10 | 0.01 | 90 | 1010.8 |
| 20260505050804 | 52 | 265 | 1.0 | 2.0 | 0.00 | 0.10 | 0.01 | 90 | 1010.8 |
| 20260505041304 | 52 | 276 | 1.0 | 5.0 | 0.00 | 0.10 | 0.01 | 90 | 1011.3 |
| 20260505040305 | 52 | 295 | 1.0 | 3.0 | 0.00 | 0.10 | 0.01 | 91 | 1011.4 |
| 20260505035804 | 52 | 275 | 1.0 | 6.0 | 0.00 | 0.10 | 0.01 | 91 | 1011.3 |
| 20260505035304 | 52 | 269 | 2.0 | 6.0 | 0.00 | 0.10 | 0.01 | 90 | 1011.2 |
| 20260505034804 | 52 | 278 | 1.0 | 3.0 | 0.00 | 0.10 | 0.01 | 90 | 1011.2 |
| 20260505034304 | 52 | 266 | 1.0 | 3.0 | 0.00 | 0.10 | 0.01 | 90 | 1011.3 |
| 20260505033804 | 52 | 271 | 2.0 | 8.0 | 0.00 | 0.10 | 0.01 | 90 | 1011.3 |
| 20260505033304 | 52 | 269 | 2.0 | 6.0 | 0.00 | 0.10 | 0.01 | 90 | 1011.2 |
| 20260505032305 | 52 | 274 | 1.0 | 6.0 | 0.00 | 0.10 | 0.01 | 90 | 1011.3 |
| 20260505031804 | 52 | 271 | 1.0 | 3.0 | 0.00 | 0.10 | 0.01 | 91 | 1011.2 |
| 20260505031305 | 52 | 253 | 1.0 | 5.0 | 0.00 | 0.10 | 0.01 | 90 | 1011.2 |
| 20260505030805 | 52 | 273 | 1.0 | 6.0 | 0.00 | 0.10 | 0.01 | 91 | 1011.1 |
| 20260505030304 | 52 | 264 | 2.0 | 6.0 | 0.00 | 0.10 | 0.01 | 91 | 1011.1 |
| 20260505025805 | 52 | 281 | 2.0 | 5.0 | 0.00 | 0.10 | 0.01 | 91 | 1011.1 |
| 20260505025305 | 52 | 271 | 2.0 | 7.0 | 0.00 | 0.10 | 0.01 | 91 | 1011.0 |
| 20260505024304 | 53 | 275 | 2.0 | 7.0 | 0.00 | 0.10 | 0.01 | 91 | 1011.0 |
| 20260505023804 | 53 | 260 | 2.0 | 6.0 | 0.00 | 0.10 | 0.01 | 91 | 1011.0 |
| 20260505023304 | 53 | 265 | 1.0 | 6.0 | 0.00 | 0.10 | 0.01 | 91 | 1011.1 |
| 20260505022804 | 52 | 299 | 0.0 | 2.0 | 0.00 | 0.10 | 0.01 | 91 | 1011.1 |
| 20260505021804 | 53 | 272 | 0.0 | 1.0 | 0.00 | 0.10 | 0.01 | 90 | 1011.2 |
| 20260505020804 | 53 | 272 | 0.0 | 1.0 | 0.00 | 0.10 | 0.01 | 90 | 1011.1 |
| 20260505020305 | 53 | 276 | 1.0 | 3.0 | 0.00 | 0.10 | 0.01 | 90 | 1011.1 |
| 20260505015805 | 53 | 275 | 1.0 | 5.0 | 0.00 | 0.10 | 0.01 | 90 | 1011.1 |
| 20260505015305 | 54 | 274 | 1.0 | 8.0 | 0.00 | 0.10 | 0.01 | 90 | 1011.0 |
| 20260505014805 | 54 | 272 | 2.0 | 8.0 | 0.00 | 0.10 | 0.01 | 90 | 1010.9 |
| 20260505014305 | 54 | 283 | 2.0 | 6.0 | 0.00 | 0.10 | 0.01 | 90 | 1010.9 |
| 20260505013305 | 54 | 272 | 2.0 | 6.0 | 0.00 | 0.10 | 0.01 | 89 | 1011.0 |
| 20260505012804 | 54 | 274 | 0.0 | 2.0 | 0.01 | 0.10 | 0.01 | 89 | 1011.0 |
| 20260505012305 | 54 | 254 | 1.0 | 3.0 | 0.01 | 0.10 | 0.01 | 90 | 1011.0 |
| 20260505010803 | 54 | 272 | 1.0 | 5.0 | 0.01 | 0.10 | 0.01 | 90 | 1011.1 |
| 20260505010304 | 54 | 276 | 1.0 | 5.0 | 0.01 | 0.10 | 0.01 | 90 | 1011.2 |
| 20260505005803 | 54 | 271 | 2.0 | 5.0 | 0.01 | 0.10 | 0.01 | 90 | 1011.2 |